Regional Weather Roundup
Issued by NWS Northern Indiana

Home | Current Version | Previous Version | Graphics & Text | Print | Product List | Glossary On
Versions: 1 2 3 4 5 6 7 8 9 10 11 12 13 14 15 16 17 18 19 20 21 22 23 24 25 26 27 28 29 30 31 32 33 34 35 36 37 38 39 40 41 42 43 44 45 46 47 48 49 50
000
ASUS43 KIWX 281910
RWRIWX

KIWX WEATHER ROUNDUP
NATIONAL WEATHER SERVICE NORTHERN INDIANA
200 PM EST FRI NOV 28 2014

NOTE: "FAIR" INDICATES FEW OR NO CLOUDS BELOW 12,000 FEET WITH NO
SIGNIFICANT WEATHER AND/OR OBSTRUCTIONS TO VISIBILITY.

* THESE STATIONS ARE NOT UNDER NWS QUALITY CONTROL. THEY ALSO MAY NOT
  REPORT WEATHER SUCH AS PRECIPITATION OR FOG.

INZ001>027-282000-
NORTHERN INDIANA

CITY           SKY/WX    TMP DP  RH WIND       PRES   REMARKS
GARY*          PTSUNNY   32  18  55 SE22      30.10F WCI  19
VALPARAISO     MOSUNNY   29  19  66 SE10G20   30.11F WCI  20
MICHIGAN CITY* MOSUNNY   30  18  59 S8        30.12F WCI  23
LAPORTE*       MOSUNNY   31  21  68 S13       30.13F WCI  21
KNOX*          SUNNY     30  20  67 SE10      30.15F WCI  21
SOUTH BEND     CLOUDY    27  18  69 SE14      30.16F WCI  16
GOSHEN         PTSUNNY   27  17  66 S9        30.18F WCI  18
MONTICELLO*    MOSUNNY   30  18  60 S8        30.16F WCI  22
LOGANSPORT*    SUNNY     32  18  55 S13       30.18F WCI  22
ROCHESTER*     MOSUNNY   32  21  64 S9        30.18F WCI  24
WARSAW*        PTSUNNY   28  19  69 S9        30.18F WCI  20
ANGOLA*        CLOUDY    23  18  80 S8        30.18F WCI  14
FORT WAYNE     PTSUNNY   29  18  63 S12       30.21F WCI  19
HUNTINGTON*    PTSUNNY   30  18  60 S8G16     30.19F WCI  22
PERU/GRISSOM   MOSUNNY   31  19  60 S10       30.18F WCI  23
MARION*          N/A     30  16  54 S8        30.20F WCI  23

$$
INZ028>050-282000-
CENTRAL INDIANA

CITY           SKY/WX    TMP DP  RH WIND       PRES   REMARKS
LAFAYETTE      PTSUNNY   31  20  63 S9G21     30.15F WCI  23
KOKOMO*        MOSUNNY   30  18  59 S14       30.19F WCI  20
MUNCIE*        MOSUNNY   31  15  52 S9        30.21F WCI  23
INDIANAPOLIS   PTSUNNY   32  19  58 S13       30.19F WCI  22

$$
MIZ043>046-050>051-056>058-064>065-071>073-077>080-282000-
SOUTHWEST LOWER MICHIGAN

CITY           SKY/WX    TMP DP  RH WIND       PRES   REMARKS
BATTLE CREEK   LGT SNOW  25  17  72 S13       30.16F WCI  14
BENTON HARBOR  CLOUDY    25  17  72 SE13G18   30.15F WCI  14
COLDWATER*     CLOUDY    26  20  76 S7        30.18F WCI  19
HILLSDALE*     CLOUDY    25  17  69 S8        30.18F WCI  17
HOLLAND        CLOUDY    25  17  72 SE9       30.14F WCI  15
GRAND RAPIDS   FLURRIES  24  15  68 S15       30.16F WCI  11
KALAMAZOO      LGT SNOW  24  18  77 S12       30.17F WCI  13
STURGIS*       FLURRIES  25  19  80 S7        30.17F WCI  17
THREE RIVERS*  CLOUDY    25  20  80 S10       30.18F WCI  15

$$
OHZ001>008-015>018-024>025-282000-
NORTHWEST OHIO

CITY           SKY/WX    TMP DP  RH WIND       PRES   REMARKS
WAUSEON*       CLOUDY    27  18  69 SW10      30.21F WCI  17
DEFIANCE       LGT SNOW  27  20  75 SW10      30.23F WCI  17
FINDLAY        LGT SNOW  29  19  66 S15       30.23F WCI  18
TOLEDO EXPRESS CLOUDY    27  15  61 S10       30.23F WCI  17
TOLEDO METCALF PTSUNNY   28  16  60 SW15      30.24F WCI  16
LIMA           CLOUDY    30  17  58 S12       30.22F WCI  20

$$
AND FOR LAKE MICHIGAN COASTAL AND OPEN LAKE BUOY OBSERVATIONS

STATION/POSITION TEMP    WIND        PRES    VSBY  WAVE
                 AIR SEA DIR/SP/G                  HT/PER
                 (F)     (DEG/KT/KT) (MB)    (MI)  (FT/S)
CALUMET HARBOR    29     140/ 13/ 16 1017.3F
MICHIGAN CITY     28     130/ 14/ 18   N/A
SAINT JOSEPH      27     150/  3/ 10 1021.0F
SOUTH LAKE BUOY   29 42  160/ 19/ 23 1019.6F         5/ 5

$$
&&



USA.gov is the U.S. government's official web portal to all federal, state and local government web resources and services.